DT_LEITURA;HR_LEITURA;MED-PressaoAtm[hPa];VAL-TempExt[oC];VAL-UmidExt[%UR];VAL-TempInt[oC];VAL-UmidInt[%UR];Dir-Vento[grau];Vel-Vento[m/s];Precipitação[mm/h]
15/08/2026;00:04:00;1022,7;;;18,0;82;27;3,5;0,2
15/08/2026;00:09:00;1022,4;;;18,0;82;30;3,4;0,2
15/08/2026;00:14:00;1022,6;;;18,0;82;25;3,2;0,0
15/08/2026;00:19:00;1022,8;;;18,0;82;25;3,0;0,2
15/08/2026;00:24:00;1022,8;;;18,0;82;26;3,3;0,0
15/08/2026;00:29:00;1022,7;;;18,0;82;28;3,3;0,0
15/08/2026;00:34:00;1022,7;;;18,0;82;25;3,4;0,0
15/08/2026;00:39:00;1022,5;;;18,0;82;26;3,7;0,0
15/08/2026;00:44:00;1022,5;;;18,1;82;29;3,3;0,2
15/08/2026;00:49:00;1022,5;;;18,1;82;29;3,1;0,2
15/08/2026;00:54:00;1022,4;;;18,1;82;29;3,0;0,0
15/08/2026;00:59:00;1022,2;;;18,1;82;30;2,9;0,0
15/08/2026;01:04:00;1022,1;;;18,1;82;27;3,4;0,2
15/08/2026;01:09:00;1021,9;;;18,1;82;24;3,5;0,0
15/08/2026;01:14:00;1022,1;;;18,1;82;22;3,4;0,2
15/08/2026;01:19:00;1022,3;;;18,1;82;25;3,8;0,0
15/08/2026;01:24:00;1022,5;;;18,1;82;27;3,1;0,0
15/08/2026;01:29:00;1022,5;;;18,1;82;33;2,5;0,0
15/08/2026;01:34:00;1022,6;;;18,1;82;34;2,8;0,2
15/08/2026;01:39:00;1022,3;;;18,1;82;28;3,3;0,4
15/08/2026;01:44:00;1022,2;;;18,1;82;29;3,7;0,2
15/08/2026;01:49:00;1022,1;;;18,1;82;30;4,2;0,2
15/08/2026;01:54:00;1021,6;;;18,1;82;40;4,6;0,4
15/08/2026;01:59:00;1021,2;;;18,1;82;36;4,4;0,2
15/08/2026;02:04:00;1021,1;;;18,1;82;27;5,2;0,2
15/08/2026;02:09:00;1021,0;;;18,1;82;23;4,4;0,2
15/08/2026;02:14:00;1020,5;;;18,1;82;26;4,8;0,2
15/08/2026;02:19:00;1020,4;;;18,1;82;23;5,0;0,0
15/08/2026;02:24:00;1020,9;;;18,1;82;25;4,2;0,0
15/08/2026;02:29:00;1021,2;;;18,1;82;29;4,0;0,2
15/08/2026;02:34:00;1021,5;;;18,2;82;29;4,0;0,2
15/08/2026;02:39:00;1021,5;;;18,2;82;30;4,0;0,0
15/08/2026;02:44:00;1021,1;;;18,2;82;30;4,3;0,0
15/08/2026;02:49:00;1020,9;;;18,2;82;30;4,8;0,2
15/08/2026;02:54:00;1020,8;;;18,2;82;33;5,1;0,2
15/08/2026;02:59:00;1020,4;;;18,2;82;41;5,6;0,6
15/08/2026;03:04:00;1020,5;;;18,2;82;33;5,2;0,2
15/08/2026;03:09:00;1020,5;;;18,1;82;30;5,5;0,0
15/08/2026;03:14:00;1020,6;;;18,2;82;26;5,8;0,2
15/08/2026;03:19:00;1020,9;;;18,2;82;25;5,0;0,0
15/08/2026;03:24:00;1021,2;;;18,2;82;25;4,2;0,2
15/08/2026;03:29:00;1020,8;;;18,2;82;32;4,8;0,0
15/08/2026;03:34:00;1020,0;;;18,2;82;36;5,6;0,0
15/08/2026;03:39:00;1020,1;;;18,2;82;38;4,8;0,0
15/08/2026;03:44:00;1020,9;;;18,2;82;37;3,7;0,0
15/08/2026;03:49:00;1021,3;;;18,2;82;38;3,0;0,0
15/08/2026;03:54:00;1021,4;;;18,2;82;27;3,2;0,2
15/08/2026;03:59:00;1020,9;;;18,2;82;38;3,4;0,0
15/08/2026;04:04:00;1020,5;;;18,2;82;42;4,6;0,2
15/08/2026;04:09:00;1020,2;;;18,3;82;37;5,0;0,0
15/08/2026;04:14:00;1020,1;;;18,3;82;41;4,3;0,0
15/08/2026;04:19:00;1020,2;;;18,3;82;37;4,7;0,0
15/08/2026;04:24:00;1020,2;;;18,3;82;33;4,9;0,0
15/08/2026;04:29:00;1020,6;;;18,3;82;39;5,1;0,0
15/08/2026;04:34:00;1020,8;;;18,3;82;43;5,0;0,0
15/08/2026;04:39:00;1020,9;;;18,3;82;39;3,6;0,4
15/08/2026;04:44:00;1021,0;;;18,3;82;41;4,3;0,2
15/08/2026;04:49:00;1020,7;;;18,3;82;42;4,7;0,2
15/08/2026;04:54:00;1020,5;;;18,3;82;40;4,7;0,2
15/08/2026;04:59:00;1020,5;;;18,3;82;38;4,6;0,2
15/08/2026;05:04:00;1020,2;;;18,4;82;40;4,8;0,0
15/08/2026;05:09:00;1019,7;;;18,4;82;38;5,9;0,0
15/08/2026;05:14:00;1019,5;;;18,4;82;37;5,9;0,2
15/08/2026;05:19:00;1019,3;;;18,4;82;38;5,7;0,2
15/08/2026;05:24:00;1019,8;;;18,4;82;34;5,2;0,0
15/08/2026;05:29:00;1020,0;;;18,4;82;37;5,1;0,0
15/08/2026;05:34:00;1020,0;;;18,4;82;36;5,1;0,0
15/08/2026;05:39:00;1020,1;;;18,4;82;36;5,8;0,0
15/08/2026;05:44:00;1020,4;;;18,4;82;39;5,5;0,0
15/08/2026;05:49:00;1020,6;;;18,4;82;42;5,1;0,2
15/08/2026;05:54:00;1020,7;;;18,4;82;45;3,9;0,0
15/08/2026;05:59:00;1020,6;;;18,4;82;42;3,5;0,4
15/08/2026;06:04:00;1020,8;;;18,4;82;38;3,0;0,2
15/08/2026;06:09:00;1020,9;;;18,4;82;39;3,1;0,4
15/08/2026;06:14:00;1020,9;;;18,4;82;39;3,7;0,4
15/08/2026;06:19:00;1020,9;;;18,4;82;39;4,9;0,2
15/08/2026;06:24:00;1021,0;;;18,4;82;35;4,0;0,4
15/08/2026;06:29:00;1021,2;;;18,4;82;33;3,7;0,2
15/08/2026;06:34:00;1021,4;;;18,4;82;42;4,2;1,0
15/08/2026;06:39:00;1021,6;;;18,4;82;31;3,7;0,4
15/08/2026;06:44:00;1021,6;;;18,4;82;33;3,8;0,4
15/08/2026;06:49:00;1021,7;;;18,4;82;27;3,4;1,4
15/08/2026;06:54:00;1021,8;;;18,4;82;34;4,0;0,8
15/08/2026;06:59:00;1021,8;;;18,4;82;36;3,8;0,6
15/08/2026;07:04:00;1021,8;;;18,4;82;29;4,1;0,2
15/08/2026;07:09:00;1021,8;;;18,4;82;32;3,9;0,2
15/08/2026;07:14:00;1021,8;;;18,3;82;35;3,2;0,4
15/08/2026;07:19:00;1021,9;;;18,3;82;41;3,6;0,4
15/08/2026;07:24:00;1022,0;;;18,3;82;36;3,2;0,2
15/08/2026;07:29:00;1022,0;;;18,2;82;41;3,1;0,2
15/08/2026;07:34:00;1022,1;;;18,2;83;42;3,2;0,6
15/08/2026;07:39:00;1022,1;;;18,2;83;41;3,9;0,2
15/08/2026;07:44:00;1022,0;;;18,2;83;39;4,9;0,2
15/08/2026;07:49:00;1021,9;;;18,2;82;38;5,4;0,2
15/08/2026;07:54:00;1021,8;;;18,2;83;37;5,0;0,2
15/08/2026;07:59:00;1021,9;;;18,2;83;39;4,5;0,2
15/08/2026;08:04:00;1022,0;;;18,2;83;41;5,1;0,2
15/08/2026;08:09:00;1022,1;;;18,3;83;40;4,2;0,0
15/08/2026;08:14:00;1022,3;;;18,3;83;40;3,8;0,0
15/08/2026;08:19:00;1022,2;;;18,2;82;40;4,8;0,2
15/08/2026;08:24:00;1022,3;;;18,2;83;43;4,7;0,0
15/08/2026;08:29:00;1022,4;;;18,2;83;41;4,1;0,0
15/08/2026;08:34:00;1022,3;;;18,2;83;39;4,2;0,0
15/08/2026;08:39:00;1022,2;;;18,2;83;39;4,6;0,0
15/08/2026;08:44:00;1022,1;;;18,2;83;36;4,6;0,0
15/08/2026;08:49:00;1022,2;;;18,2;83;38;4,8;0,0
15/08/2026;08:54:00;1022,3;;;18,3;83;38;4,7;0,0
15/08/2026;08:59:00;1022,3;;;18,3;83;41;4,8;0,0
15/08/2026;09:04:00;1022,4;;;18,3;83;40;4,2;0,0
15/08/2026;09:09:00;1022,5;;;18,3;83;40;4,0;0,0
15/08/2026;09:14:00;1022,5;;;18,4;83;40;3,8;0,2
15/08/2026;09:19:00;1022,5;;;18,4;83;39;4,5;0,2
15/08/2026;09:24:00;1022,5;;;18,4;83;40;4,3;0,0
15/08/2026;09:29:00;1022,5;;;18,4;83;42;3,5;0,4
15/08/2026;09:34:00;1022,5;;;18,5;83;40;4,2;0,4
15/08/2026;09:39:00;1022,5;;;18,5;83;35;4,8;0,2
15/08/2026;09:44:00;1022,5;;;18,5;83;32;5,8;0,4
15/08/2026;09:49:00;1022,6;;;18,5;83;33;6,1;0,0
15/08/2026;09:54:00;1022,5;;;18,5;83;37;6,0;0,2
15/08/2026;09:59:00;1022,5;;;18,5;83;36;5,3;0,0
15/08/2026;10:04:00;1022,4;;;18,5;84;37;5,7;0,2
15/08/2026;10:09:00;1022,5;;;18,5;83;37;5,9;0,0
15/08/2026;10:14:00;1022,6;;;18,5;84;37;6,2;0,0
15/08/2026;10:19:00;1022,7;;;18,5;84;41;6,1;0,0
15/08/2026;10:24:00;1022,7;;;18,5;84;40;5,9;0,0
15/08/2026;10:29:00;1022,8;;;18,5;84;40;6,0;0,0
15/08/2026;10:34:00;1022,8;;;18,5;84;39;6,0;0,2
15/08/2026;10:39:00;1022,8;;;18,5;84;39;6,0;0,0
15/08/2026;10:44:00;1022,8;;;18,5;84;38;5,4;0,2
15/08/2026;10:49:00;1022,8;;;18,5;84;38;5,1;0,0
15/08/2026;10:54:00;1022,8;;;18,6;84;42;4,6;0,2
15/08/2026;10:59:00;1022,7;;;18,6;85;39;4,8;0,2
15/08/2026;11:04:00;1022,7;;;18,6;85;41;4,9;0,0
15/08/2026;11:09:00;1022,8;;;18,7;85;44;4,3;0,0
15/08/2026;11:14:00;1022,8;;;18,7;85;30;4,4;0,2
15/08/2026;11:19:00;1022,8;;;18,7;85;38;4,2;0,0
15/08/2026;11:24:00;1022,8;;;18,7;84;41;5,8;0,2
15/08/2026;11:29:00;1022,7;;;18,7;84;39;6,8;0,4
15/08/2026;11:34:00;1022,5;;;18,7;84;37;7,5;0,0
15/08/2026;11:39:00;1022,5;;;18,7;84;39;7,0;0,2
15/08/2026;11:44:00;1022,5;;;18,7;85;45;5,8;0,2
15/08/2026;11:49:00;1022,4;;;18,7;85;43;6,5;0,0
15/08/2026;11:54:00;1022,4;;;18,8;85;41;5,5;0,2
15/08/2026;11:59:00;1022,5;;;18,8;85;41;6,2;0,0
15/08/2026;12:04:00;1022,4;;;18,7;85;42;5,6;0,2
15/08/2026;12:09:00;1022,4;;;18,7;85;41;5,0;0,2
15/08/2026;12:14:00;1022,3;;;18,8;85;41;5,8;0,2
15/08/2026;12:19:00;1022,2;;;18,8;84;40;5,2;0,4
15/08/2026;12:24:00;1022,1;;;18,8;84;41;4,9;0,2
15/08/2026;12:29:00;1022,1;;;18,8;84;44;5,6;0,2
15/08/2026;12:34:00;1022,0;;;18,8;85;42;4,8;0,2
15/08/2026;12:39:00;1021,9;;;18,8;85;43;5,2;0,0
15/08/2026;12:44:00;1021,8;;;18,9;85;42;5,4;0,2
15/08/2026;12:49:00;1021,7;;;18,9;85;42;5,4;0,0
15/08/2026;12:54:00;1021,5;;;18,9;85;43;5,8;0,4
15/08/2026;12:59:00;1021,4;;;18,9;85;44;5,0;0,2
15/08/2026;13:04:00;1021,4;;;18,9;85;45;4,9;0,0
15/08/2026;13:09:00;1021,3;;;18,9;85;41;4,0;0,0
15/08/2026;13:14:00;1021,2;;;18,9;85;41;3,6;0,2
15/08/2026;13:19:00;1021,0;;;19,0;85;41;4,2;0,2
15/08/2026;13:24:00;1020,9;;;19,0;85;42;5,5;0,2
15/08/2026;13:29:00;1020,9;;;19,0;85;43;4,8;0,0
15/08/2026;13:34:00;1020,9;;;19,0;85;36;4,6;0,2
15/08/2026;13:39:00;1020,9;;;19,0;85;35;4,5;0,0
15/08/2026;13:44:00;1020,9;;;19,0;85;33;4,6;0,0
15/08/2026;13:49:00;1020,9;;;19,0;85;30;5,1;0,0
15/08/2026;13:54:00;1020,9;;;19,0;85;29;5,0;0,2
15/08/2026;13:59:00;1020,8;;;19,0;85;28;4,9;0,0
15/08/2026;14:04:00;1020,7;;;19,1;85;30;4,9;0,0
15/08/2026;14:09:00;1020,7;;;19,1;85;24;4,7;0,2
15/08/2026;14:14:00;1020,6;;;19,1;85;25;3,6;0,2
15/08/2026;14:19:00;1020,6;;;19,1;85;22;3,3;0,0
15/08/2026;14:24:00;1020,6;;;19,1;85;21;3,4;0,0
15/08/2026;14:29:00;1020,5;;;19,1;85;26;4,0;0,0
15/08/2026;14:34:00;1020,5;;;19,1;85;26;3,7;0,2
15/08/2026;14:39:00;1020,5;;;19,1;85;22;3,6;0,4
15/08/2026;14:44:00;1020,4;;;19,1;85;19;3,5;0,2
15/08/2026;14:49:00;1020,4;;;19,1;85;21;3,1;0,4
15/08/2026;14:54:00;1020,4;;;19,1;85;22;3,1;0,4
15/08/2026;14:59:00;1020,3;;;19,0;84;25;3,3;0,2
15/08/2026;15:04:00;1020,2;;;19,0;84;25;4,0;0,4
15/08/2026;15:09:00;1020,1;;;19,0;84;28;4,3;0,2
15/08/2026;15:14:00;1020,1;;;19,0;84;29;4,5;0,2
15/08/2026;15:19:00;1020,1;;;19,0;84;29;4,0;0,4
15/08/2026;15:24:00;1020,1;;;19,0;84;31;3,9;0,6
15/08/2026;15:29:00;1020,1;;;19,0;84;28;4,6;0,8
15/08/2026;15:34:00;1020,1;;;19,0;84;29;4,0;1,0
15/08/2026;15:39:00;1020,1;;;19,0;84;25;4,7;1,0
15/08/2026;15:44:00;1020,0;;;19,0;84;22;4,7;0,8
15/08/2026;15:49:00;1020,1;;;19,0;84;24;4,7;0,8
15/08/2026;15:54:00;1020,1;;;19,0;84;21;4,8;0,2
15/08/2026;15:59:00;1020,0;;;19,0;84;23;4,6;0,4
15/08/2026;16:04:00;1019,9;;;19,0;84;25;4,3;0,6
15/08/2026;16:09:00;1019,9;;;19,0;84;21;4,6;0,6
15/08/2026;16:14:00;1019,9;;;19,0;84;24;4,7;0,2
15/08/2026;16:19:00;1020,0;;;18,9;84;24;4,5;0,6
15/08/2026;16:24:00;1020,1;;;18,9;84;18;4,4;0,8
15/08/2026;16:29:00;1020,0;;;18,9;84;24;4,6;0,6
15/08/2026;16:34:00;1020,1;;;18,9;84;24;4,9;0,0
15/08/2026;16:39:00;1020,0;;;18,9;84;23;5,4;0,2
15/08/2026;16:44:00;1020,1;;;18,9;84;24;5,7;0,0
15/08/2026;16:49:00;1020,1;;;18,9;84;24;5,6;0,2
15/08/2026;16:54:00;1020,1;;;18,9;84;24;19,3;0,0
15/08/2026;16:59:00;1020,1;;;18,9;84;26;6,2;0,0
15/08/2026;17:04:00;1020,1;;;18,9;84;29;6,5;0,0
15/08/2026;17:09:00;1020,1;;;18,9;84;25;6,5;0,0
15/08/2026;17:14:00;1020,1;;;18,9;84;25;6,0;0,0
15/08/2026;17:19:00;1020,2;;;18,9;84;25;6,0;0,0
15/08/2026;17:24:00;1020,2;;;18,9;84;26;5,9;0,0
15/08/2026;17:29:00;1020,2;;;18,9;84;26;6,1;0,0
15/08/2026;17:34:00;1020,2;;;18,9;84;28;6,1;0,0
15/08/2026;17:39:00;1020,2;;;18,9;84;29;5,3;0,0
15/08/2026;17:44:00;1020,3;;;18,9;84;33;4,8;0,0
15/08/2026;17:49:00;1020,3;;;18,9;84;32;5,1;0,0
15/08/2026;17:54:00;1020,3;;;18,9;84;34;4,8;0,0
15/08/2026;17:59:00;1020,3;;;18,9;84;29;5,4;0,0
15/08/2026;18:04:00;1020,2;;;18,9;84;31;5,1;0,0
15/08/2026;18:09:00;1020,1;;;18,9;84;34;5,1;0,0
15/08/2026;18:14:00;1020,1;;;18,9;84;35;5,3;0,0
15/08/2026;18:19:00;1020,1;;;18,9;84;34;5,4;0,0
15/08/2026;18:24:00;1020,1;;;18,9;84;36;4,9;0,0
15/08/2026;18:29:00;1020,0;;;18,9;84;34;5,1;0,0
15/08/2026;18:34:00;1020,1;;;18,9;84;35;5,4;0,0
15/08/2026;18:39:00;1020,1;;;18,9;84;34;4,9;0,0
15/08/2026;18:44:00;1020,1;;;18,9;84;34;5,5;0,0
15/08/2026;18:49:00;1020,0;;;18,9;84;35;5,8;0,2
15/08/2026;18:54:00;1020,2;;;18,9;84;34;4,9;0,0
15/08/2026;18:59:00;1020,2;;;18,9;84;32;5,7;0,0
15/08/2026;19:04:00;1020,2;;;18,9;84;33;5,4;0,0
15/08/2026;19:09:00;1020,2;;;18,9;84;31;5,4;0,0
15/08/2026;19:14:00;1020,2;;;18,9;84;30;5,9;0,0
15/08/2026;19:19:00;1020,2;;;18,9;84;28;5,9;0,0
15/08/2026;19:24:00;1020,2;;;18,9;84;28;5,6;0,0
15/08/2026;19:29:00;1020,4;;;18,9;84;29;5,5;0,0
15/08/2026;19:34:00;1020,4;;;18,9;84;29;5,4;0,2
15/08/2026;19:39:00;1020,4;;;18,9;84;29;5,5;0,2
15/08/2026;19:44:00;1020,5;;;18,9;84;26;6,2;0,0
15/08/2026;19:49:00;1020,6;;;18,9;84;28;5,8;0,2
15/08/2026;19:54:00;1020,5;;;18,9;84;27;6,2;0,0
15/08/2026;19:59:00;1020,5;;;18,9;84;28;6,6;0,0
15/08/2026;20:04:00;1020,5;;;18,9;84;29;6,3;0,2
15/08/2026;20:09:00;1020,5;;;18,9;84;30;6,0;0,0
15/08/2026;20:14:00;1020,6;;;18,9;84;30;5,6;0,0
15/08/2026;20:19:00;1020,6;;;19,0;84;30;5,8;0,0
15/08/2026;20:24:00;1020,8;;;19,0;84;29;6,1;0,0
15/08/2026;20:29:00;1020,7;;;19,0;84;31;5,6;0,2
15/08/2026;20:34:00;1020,6;;;19,0;84;29;6,4;0,0
15/08/2026;20:39:00;1020,7;;;19,0;84;26;6,5;0,2
15/08/2026;20:44:00;1020,8;;;19,0;84;28;6,1;0,0
15/08/2026;20:49:00;1020,9;;;19,0;84;27;6,3;0,2
15/08/2026;20:54:00;1020,9;;;19,0;84;26;6,6;0,0
15/08/2026;20:59:00;1021,0;;;19,0;84;25;6,0;0,0
15/08/2026;21:04:00;1021,0;;;19,0;84;28;6,0;0,2
15/08/2026;21:09:00;1020,9;;;19,0;84;30;5,8;0,2
15/08/2026;21:14:00;1020,9;;;19,0;84;26;6,2;0,0
15/08/2026;21:19:00;1020,9;;;19,0;84;27;6,3;0,0
15/08/2026;21:24:00;1021,0;;;19,0;84;29;6,0;0,2
15/08/2026;21:29:00;1021,1;;;19,0;84;26;6,2;0,0
15/08/2026;21:34:00;1021,0;;;19,0;84;27;5,4;0,0
15/08/2026;21:39:00;1021,0;;;19,0;84;26;5,5;0,2
15/08/2026;21:44:00;1021,1;;;19,0;84;24;5,4;0,0
15/08/2026;21:49:00;1021,1;;;19,0;84;27;5,3;0,0
15/08/2026;21:54:00;1021,0;;;19,0;84;28;5,4;0,2
15/08/2026;21:59:00;1020,9;;;19,0;84;27;5,1;0,0
15/08/2026;22:04:00;1020,9;;;19,0;84;27;5,3;0,2
15/08/2026;22:09:00;1020,9;;;19,0;84;27;5,2;0,2
15/08/2026;22:14:00;1020,9;;;19,0;84;27;5,3;0,0
15/08/2026;22:19:00;1021,0;;;19,0;84;28;5,1;0,0
15/08/2026;22:24:00;1021,0;;;19,0;84;25;5,0;0,2
15/08/2026;22:29:00;1021,0;;;19,0;84;26;4,7;0,0
15/08/2026;22:34:00;1021,0;;;19,1;84;26;4,7;0,0
15/08/2026;22:39:00;1021,0;;;19,1;84;25;4,5;0,2
15/08/2026;22:44:00;1021,1;;;19,1;84;26;4,5;0,0
15/08/2026;22:49:00;1021,0;;;19,1;84;27;4,3;0,2
15/08/2026;22:54:00;1021,1;;;19,1;84;25;3,9;0,0
15/08/2026;22:59:00;1020,9;;;19,1;84;27;4,3;0,0
15/08/2026;23:04:00;1020,8;;;19,1;84;25;5,2;0,0
15/08/2026;23:09:00;1020,9;;;19,1;84;24;4,8;0,0
15/08/2026;23:14:00;1020,8;;;19,1;84;26;5,0;0,2
15/08/2026;23:19:00;1020,9;;;19,1;84;27;4,7;0,0
15/08/2026;23:24:00;1020,8;;;19,1;84;27;4,8;0,0
15/08/2026;23:29:00;1020,8;;;19,1;84;26;4,7;0,0
15/08/2026;23:34:00;1020,7;;;19,1;84;26;5,0;0,0
15/08/2026;23:39:00;1020,7;;;19,1;84;26;5,2;0,0
15/08/2026;23:44:00;1020,7;;;19,1;84;27;5,1;0,2
15/08/2026;23:49:00;1020,6;;;19,1;84;27;4,9;0,0
15/08/2026;23:54:00;1020,5;;;19,1;84;26;5,3;0,0
15/08/2026;23:59:00;1020,6;;;19,1;84;25;5,2;0,0
